Погода в Вильнюсе

Погода в Вильнюсе : погода сейчас, прогноз погоды и архив. Всё, что Вы хотите узнать о погоде в Вильнюсе!

Поиск расширенной информации на нашем сайте:

Другие новости

Новости СМИ2

Главная страница сайта

Новости сайта

02.10.2013

Напоминаем, что на нашем новом сайте вы можете получить высокодетализированные прогнозы погоды по пунктам России, СНГ и мира (включающие важные для авиации метеовеличины, такие как направление и скорость ветра, видимость, явления погоды, количество и форма облачности, нижняя и верхняя граница облачности), а также ознакомиться с разнообразными материалами по авиационной метеорологии и подборкой полезных ссылок на эту тему.

Сайт Метеоцентр.Азия посвящён разработке технологий оптимизации авиаметеорологического обслуживания, включая проектирование и перспективное создание нескольких автоматизированных авиаметеорологических систем:
- система выпуска высокодетальных прогностических карт явлений погоды для нижнего воздушного пространства по России и ближнему зарубежью;
- система верификации прогнозов TAF (выпускаемых синоптиками официальных АМСГ РФ и ближнего зарубежья) и AUTOTAF (выпускаемых сайтом Метеоцентр.Азия) - выявление ошибок, онлайн-сопоставление с фактической погодой METAR, автоматическое внесение коррективов в прогнозы при резком отклонении фактической погоды от прогноза, подсчёт оправдываемости прогнозов по элементам и в целом;
- система обработки, анализа и отображения авиаметеорологической информации для применения провайдерами метеорологической информации.

Рекомендуем: Алюминиевый конструкционный профиль, профиль алюминиевый анодированный vprofille.ru.

Погода в Вильнюсе - сегодня

Время (UTC), дата Ветер
(°,м/с) 
Видим.   Явления Облачность Т
(°С)
Тd
(°С)
f(%) Тe
(°С)
Pmin
(гПа)
dP
(гПа)
Po
(мм)
O2
(г/м3)
Тmin Tmax R s Состояние
почвы
12 26.04.17 260 (З) 4-7{09}  20000 м    10/5 1440 м средняя 
[Cu hum|As op]
+7.8 -2.2 49 +7  1011  1.2  744  292           
15 26.04.17 240 (ЮЗ) 3-5{08}  20000 м    9/5 1500 м средняя 
[Cu hum|As op]
+7.9 -2.7 47 +7  1011.6  0.6  744  292           
18 26.04.17 тихо () -1{06}  16000 м    9/4 1500 м средняя 
[Sc diur, vesp|As trans]
+6.3 -2.2 54 +6  1012.5  0.8  745  294    +8.5       
21 26.04.17 тихо () -2{02}  20000 м    9/4 1500 м средняя 
[Sc diur, vesp|As trans]
+4.7 -0.7 68 +5  1013.9  1.2  746  296           
00 27.04.17 тихо () -2{02}  20000 м    10/0 средняя 
[As op]
+3.5 +0.6 81 +4  1013.9  746  297           
03 27.04.17 160 (Ю) 1-3{04}  20000 м    10/0 средняя 
[As op]
+2.8 -0.2 81 +4  1013.8  -0.2  746  297           
06 27.04.17 190 (Ю) 3-5{05}  20000 м    4/0 средняя, верхняя 
[Ac trans|Ci fib]
+5.3 +1.5 76 +4  1013.5  746  295  +2.5        влажная 
09 27.04.17 220 (ЮЗ) 1-4{05}  20000 м    10/4 1000 м средняя 
[Cu hum|As op]
+7.8 +0 58 +9  1014.5  1.1  747  292           
12 27.04.17 200 (Ю) 1-3{05}  20000 м    10/6 1170 м средняя 
[Cu Sc|As op]
+8.3 -0.7 53 +9  1015.3  0.8  747  292           
15 27.04.17 190 (Ю) 3-5{05}  20000 м    9/0 средняя 
[Ac As]
+8.4 +0 55 +8  1015.7  0.4  748  292           
18 27.04.17 190 (Ю) 1-2{05}  20000 м    9/0 средняя 
[Ac trans]
+6.6 +0.5 65 +8  1016.8  0.9  748  294    +8.9       
21 27.04.17 170 (Ю) 1-3{04}  20000 м    10/0 средняя 
[Ac und]
+4.9 +1.3 77 +6  1017.7  0.8  749  296           
00 28.04.17 тихо () -1{03}  20000 м    3/0 средняя 
[Ac trans]
+3 +1.2 88 +3  1018.8  0.9  749  299           
03 28.04.17 тихо () -0{03}  15000 м    9/0 средняя 
[Ac trans]
+1.6 +0.2 90 +2  1019  0.1  750  300           
06 28.04.17 тихо () -2{03}  20000 м    10/0 средняя 
[As op]
+4.3 +1.8 84 +4  1018.3  -0.4  749  297  +1.3        влажная 
09 28.04.17 060 (СВ) 3-7{09}  20000 м    10/10 1500 м 
[Sc]
+6.5 +0.9 67 +6  1017.3  -0.9  749  294           
12 28.04.17 050 (СВ) 4-8{12}  9000 м  дождь  10/10 420 м 
[Ns]
+4.1 +2.3 88 +2  1015.5  -1.9  747  296         
15 28.04.17 050 (СВ) 4-7{10}  16000 м  слаб. дождь  10/10 300 м 
[Ns]
+3 +1.7 91 +1  1012.9  -2.6  745  297           
18 28.04.17 050 (СВ) 3-6{11}  10 км  слаб. дождь  10/10 150 м 
[Ns]
+3.6 +2.6 93 +2  1011.3  -1.6  744  295    +7.2  14     
21 28.04.17 070 (В) 3-6{08}  11000 м  дождь  10/10 120 м 
[Ns]
+4 +3 93 +3  1009.9  -1.3  743  295           
00 29.04.17 040 (СВ) 2-4{07}  20000 м  в посл. час дождь  10/10 120 м 
[St]
+4.2 +3.5 95 +4  1007.4  -2.4  741  294         
03 29.04.17 070 (В) 1-2{05}  3400 м  дождь  10/10 60 м 
[Ns]
+4.5 +4 97 +5  1006.4  -1  740  293           
06 29.04.17 200 (Ю) 2-3{04}  20000 м  в посл. час дождь  10/10 100 м 
[St]
+5.8 +5.1 95 +6  1005.6  -0.7  740  291  +3.6      влажная 
09 29.04.17 220 (ЮЗ) 5-9{09}  20000 м  {морось}  10/10 210 м 
[St]
+6.1 +5 93 +4  1007.8  2.2  742  291           
12 29.04.17 220 (ЮЗ) 5-9{11}  20000 м  {морось}  9/9 480 м 
[Cu Sc]
+6.4 +3.3 81 +5  1011  3.1  744  292      0.4     
Время (UTC), дата Ветер
(°,м/с) 
Видим.   Явления Облачность Т
(°С)
Тd
(°С)
f(%) Тe
(°С)
Pmin
(гПа)
dP
(гПа)
Po
(мм)
O2
(г/м3)
Тmin Tmax R s Состояние
почвы

Для получения пояснительной информации подведите курсор к названию столбца.

ПОГОДА в Вильнюсе - архив

Всё, что Вы хотите узнать о погоде в Вильнюсе - удобно и подробно!

Выберите нужную дату (начиная с 1 января 2015* года) и нажмите кнопку "Найти".
Будут отображены архивные сводки погоды по пункту Вильнюс, начиная с указанной даты.


Отображать данные в формате CSV (для использования в таблицах Excel)


Внимание! Наш архив погоды предназначен исключительно для личного некоммерческого использования в познавательных целях. Если Вам необходимы официальные справки о состоянии погоды (для производственных, юридических, коммерческих и т.п. целей), обращайтесь в органы Росгидромета.

*Примечание: данная дата относится к архиву по метеостанциям СССР (Россия, СНГ, Балтия).
Архив по метеостанциям Зарубежной Европы и Азии (кроме Китая) хранится 10 дней, по другим регионам земного шара (Китай, Африка, Америка, Австралия, Океания) - 1 день.

Вильнюс - район местоположения метеостанции


Название, широта, долгота, высота метеостанции:
Вильнюс 54.6°ш. 25.1°д. 156 м над ур. моря [Литва]

Дополнительная информация

В oтличие oт бoльшинства пoгoдных сайтoв мы публикуем пoдрoбную метеoинфoрмацию в детальнoм прoфессиoнальнoм фoрмате.

Характеристики температуры и влажнoсти вoздуха измеряются на высoте 2 м в тени вдали oт зданий и деревьев.
Скoрoсть ветра измеряется на высoте 10 м (на урoвне рoста челoвека скoрoсть ветра ниже в 1.5-2 раза). Если метеoстанция нахoдится в гoрoде или в лесу, тo скoрoсть ветра занижена на 2-4 м/с пo сравнению с oткрытым местoм. Скoрoсть ветра над акватoриями крупных рек и oзёр, а также на вершинах хoлмoв на 2-5 м/с выше, чем в oбычных услoвиях.
Атмoсфернoе давление в разных тoчках местнoсти мoжет значительнo oтличаться oт давления на метеoстанции, в зависимoсти oт услoвий рельефа (при пoдъёме на 10 м давление пoнижается примернo на 1 мм рт.ст.).